Location: Newark
(49.1000°N, 0.4667°W)
Time: 10:32:17
(UTC+00:00)

BEESAT 3 - Pass Details

Date: 11 July 2020
Orbit: 482 x 522 km, 64.9° (Epoch: 10 August)

Event Time Altitude Azimuth Distance (km) Brightness Sun altitude
Rises 03:05:11 0° 324° (NW) 2,655 ? -8.6°
Reaches altitude 10° 03:07:30 10° 333° (NNW) 1,759 ? -8.4°
Maximum altitude 03:11:11 37° 42° (NE) 814 ? -7.9°
Drops below altitude 10° 03:14:49 10° 111° (ESE) 1,731 ? -7.5°
Sets 03:17:05 0° 120° (ESE) 2,606 ? -7.3°
